Location: Unspecified
(0.0000°N, 0.0000°E)
Time: 23:14:03
(UTC+01:00)

Cosmos 2237 Rocket - Visible Passes

Search period start: 28 January 2015 00:00
Search period end: 07 February 2015 00:00
Orbit: 835 x 850 km, 71.0° (Epoch: 27 January)

Date Brightness Start Highest point End Pass type
(mag) Time Alt. Az. Time Alt. Az. Time Alt. Az.
01 Feb 4.3 20:41:06 10° SE 20:41:15 10° SE 20:41:15 10° SE visible
01 Feb 4.9 22:22:40 10° SW 22:23:07 12° SW 22:23:07 12° SW visible
02 Feb 4.1 20:26:38 10° SE 20:27:31 12° SE 20:27:31 12° SE visible
02 Feb 4.5 22:07:49 10° SW 22:09:24 18° SW 22:09:24 18° SW visible
03 Feb 4.0 20:12:14 10° SE 20:13:54 12° ESE 20:13:54 12° ESE visible
03 Feb 4.0 21:52:59 10° SW 21:55:48 27° SW 21:55:48 27° SW visible
04 Feb 4.0 19:57:56 10° SE 19:59:27 11° ESE 20:00:23 11° E visible
04 Feb 3.3 21:38:10 10° SSW 21:42:17 39° WSW 21:42:17 39° WSW visible
05 Feb 4.0 19:43:50 10° ESE 19:44:40 10° ESE 19:46:00 10° E visible
05 Feb 2.9 21:23:20 10° SSW 21:28:45 49° WNW 21:28:53 49° WNW visible
06 Feb 2.8 21:08:31 10° SSW 21:13:58 52° WNW 21:15:38 39° NNW visible
